TimeCST,TemperatureF,Dew PointF,Humidity,Sea Level PressureIn,VisibilityMPH,Wind Direction,Wind SpeedMPH,Gust SpeedMPH,PrecipitationIn,Events,Conditions,WindDirDegrees,DateUTC
12:03 AM,37.4,26.6,65,30.17,10.0,ENE,6.9,-,N/A,,Overcast,60,2012-11-05 06:03:00
12:53 AM,36.0,28.0,73,30.21,10.0,ENE,8.1,-,N/A,,Overcast,70,2012-11-05 06:53:00
1:21 AM,35.6,28.4,75,30.17,10.0,East,8.1,-,N/A,,Overcast,80,2012-11-05 07:21:00
1:53 AM,35.1,30.0,82,30.23,8.0,ENE,10.4,-,N/A,,Overcast,70,2012-11-05 07:53:00
2:53 AM,34.0,30.9,89,30.23,8.0,ENE,6.9,-,N/A,,Overcast,60,2012-11-05 08:53:00
3:18 AM,33.8,30.2,87,30.17,8.0,ENE,9.2,-,N/A,,Overcast,60,2012-11-05 09:18:00
3:35 AM,33.8,30.2,87,30.17,7.0,NE,9.2,-,N/A,,Overcast,50,2012-11-05 09:35:00
3:48 AM,33.8,30.2,87,30.17,5.0,ENE,8.1,-,N/A,,Overcast,60,2012-11-05 09:48:00
3:53 AM,33.1,30.9,92,30.23,4.0,ENE,8.1,-,N/A,,Overcast,60,2012-11-05 09:53:00
4:49 AM,33.8,30.2,87,30.18,2.5,ENE,6.9,-,N/A,,Overcast,60,2012-11-05 10:49:00
4:53 AM,33.1,30.9,92,30.23,2.5,NE,5.8,-,N/A,,Overcast,50,2012-11-05 10:53:00
5:21 AM,33.8,30.2,87,30.18,3.0,NE,6.9,-,N/A,,Overcast,50,2012-11-05 11:21:00
5:30 AM,33.8,30.2,87,30.18,2.5,ENE,6.9,-,N/A,,Overcast,60,2012-11-05 11:30:00
6:08 AM,33.8,30.2,87,30.18,3.0,NE,5.8,-,N/A,,Overcast,50,2012-11-05 12:08:00
6:53 AM,32.0,30.9,96,30.22,5.0,NE,4.6,-,N/A,,Overcast,50,2012-11-05 12:53:00
7:53 AM,33.1,30.9,92,30.23,4.0,ENE,9.2,-,N/A,,Overcast,60,2012-11-05 13:53:00
8:53 AM,33.1,30.9,92,30.23,4.0,ENE,6.9,-,N/A,,Overcast,70,2012-11-05 14:53:00
9:53 AM,33.1,30.9,92,30.22,3.0,East,6.9,-,N/A,,Overcast,80,2012-11-05 15:53:00
10:53 AM,34.0,32.0,92,30.22,5.0,ESE,5.8,-,N/A,,Overcast,120,2012-11-05 16:53:00
11:53 AM,34.0,32.0,92,30.20,2.5,SE,5.8,-,N/A,,Overcast,140,2012-11-05 17:53:00
12:26 PM,33.8,33.8,100,30.14,3.0,SE,4.6,-,N/A,,Overcast,140,2012-11-05 18:26:00
12:45 PM,33.8,32.0,93,30.13,2.0,SSE,5.8,-,N/A,,Overcast,160,2012-11-05 18:45:00
12:53 PM,34.0,33.1,96,30.17,1.8,SSE,5.8,-,N/A,,Overcast,150,2012-11-05 18:53:00
1:25 PM,33.8,33.8,100,30.10,2.0,SE,5.8,-,N/A,,Overcast,140,2012-11-05 19:25:00
1:48 PM,33.8,33.8,100,30.09,1.5,SSE,4.6,-,N/A,,Overcast,150,2012-11-05 19:48:00
1:53 PM,34.0,33.1,96,30.14,1.5,SE,4.6,-,N/A,,Overcast,130,2012-11-05 19:53:00
2:12 PM,33.8,33.8,100,30.09,2.0,SSE,5.8,-,N/A,,Overcast,150,2012-11-05 20:12:00
2:50 PM,35.6,33.8,93,30.07,3.0,SSE,5.8,-,N/A,,Overcast,150,2012-11-05 20:50:00
2:53 PM,35.1,34.0,96,30.12,4.0,SSE,5.8,-,N/A,,Overcast,160,2012-11-05 20:53:00
3:53 PM,35.1,34.0,96,30.09,6.0,SSE,8.1,-,N/A,,Overcast,150,2012-11-05 21:53:00
4:53 PM,36.0,35.1,97,30.09,4.0,South,6.9,-,N/A,,Overcast,190,2012-11-05 22:53:00
5:21 PM,35.6,35.6,100,30.02,1.8,SSW,6.9,-,N/A,,Overcast,200,2012-11-05 23:21:00
5:29 PM,35.6,35.6,100,30.02,0.8,SSW,9.2,-,N/A,,Overcast,210,2012-11-05 23:29:00
5:53 PM,36.0,35.1,97,30.06,1.0,SW,10.4,-,N/A,,Mist,220,2012-11-05 23:53:00
6:07 PM,35.6,33.8,93,30.01,0.5,SSW,8.1,-,N/A,Fog,Fog,210,2012-11-06 00:07:00
6:25 PM,35.6,33.8,93,30.01,0.8,SW,11.5,-,N/A,,Mist,220,2012-11-06 00:25:00
6:53 PM,35.1,34.0,96,30.05,1.0,SSW,11.5,-,N/A,,Mist,210,2012-11-06 00:53:00
7:20 PM,35.6,33.8,93,29.98,1.8,SSW,8.1,-,N/A,,Overcast,200,2012-11-06 01:20:00
7:28 PM,35.6,33.8,93,29.97,2.5,South,10.4,-,N/A,,Overcast,190,2012-11-06 01:28:00
7:35 PM,35.6,33.8,93,29.97,4.0,South,8.1,-,N/A,,Overcast,180,2012-11-06 01:35:00
7:53 PM,35.1,34.0,96,30.01,5.0,SSW,11.5,-,N/A,,Overcast,200,2012-11-06 01:53:00
8:53 PM,36.0,34.0,93,29.98,5.0,South,10.4,-,N/A,,Overcast,190,2012-11-06 02:53:00
9:50 PM,35.6,33.8,93,29.91,6.0,SSW,13.8,-,0.00,,Overcast,200,2012-11-06 03:50:00
9:53 PM,36.0,33.1,89,29.96,6.0,SSW,13.8,-,0.00,Snow,Light Snow,200,2012-11-06 03:53:00
10:12 PM,33.8,32.0,93,29.89,2.5,South,10.4,-,0.02,Snow,Light Snow,190,2012-11-06 04:12:00
10:25 PM,33.8,32.0,93,29.88,3.0,South,11.5,-,0.04,Snow,Light Snow,170,2012-11-06 04:25:00
10:42 PM,33.8,32.0,93,29.88,5.0,SSW,15.0,-,0.04,Snow,Light Snow,200,2012-11-06 04:42:00
10:53 PM,35.1,33.1,92,29.93,6.0,SW,10.4,-,0.04,,Overcast,220,2012-11-06 04:53:00
11:53 PM,34.0,32.0,92,29.88,3.0,South,15.0,-,0.03,Snow,Light Snow,190,2012-11-06 05:53:00